Helicity
126 212 209 109 78 53 82 75 63 58 72 129 127 109 116 72 55 -62 -6 68 29 22 -0 13 74 19 15 83 90 168 169 193 121 145 216 251 250 290 316 335 306 317 350 264
248 221 170 150 139 146 149 106 78 62 71 99 84 72 56 -24 26 49 35 15 21 15 5 82 60 33 30 61 68 149 165 172 168 191 250 304 306 334 328 324 337 389 388 346
206 190 190 229 236 162 152 130 130 120 129 151 100 -1 33 69 145 46 62 13 57 52 90 122 38 54 41 48 62 160 161 197 181 225 305 441 508 393 318 294 366 399 422 466
242 179 167 160 168 167 133 132 106 94 116 128 150 -8 79 -1 11 79 73 121 86 139 133 99 80 60 67 164 134 109 177 200 217 293 390 347 311 325 320 381 458 526 489 481
270 195 161 141 92 102 141 75 93 96 89 87 67 67 63 13 16 59 131 79 60 94 91 86 72 76 84 134 226 138 188 218 310 369 355 337 395 431 475 519 530 558 565 543
190 154 179 188 148 63 43 106 70 54 51 97 22 56 76 115 301 323 237 50 81 48 66 84 105 106 110 130 193 263 321 362 338 354 364 375 425 444 492 498 530 514 478 442
87 75 61 80 59 55 75 88 86 64 104 109 151 131 84 133 91 225 187 102 40 53 82 87 93 104 105 108 131 181 243 317 355 380 365 389 420 374 390 406 437 417 362 324
114 147 11 30 19 61 37 34 102 134 80 104 122 152 134 207 182 161 144 125 157 92 63 89 122 120 116 118 108 120 145 194 219 252 262 253 234 252 235 208 188 200 225 127
94 128 87 77 47 6 61 53 -14 73 95 120 112 105 59 188 144 130 113 93 59 68 86 105 109 123 121 110 108 101 110 137 166 201 228 215 182 126 140 193 179 122 146 115
172 225 49 51 60 48 30 102 66 139 169 117 72 84 123 69 65 67 70 25 31 60 81 139 139 121 109 120 153 178 171 164 136 142 133 153 135 160 191 251 278 225 203 194
121 155 138 159 57 34 68 61 156 222 193 148 113 114 103 211 149 145 56 71 59 40 107 150 152 128 145 194 211 185 173 161 162 154 137 140 144 167 167 148 136 113 104 87
91 200 178 99 42 23 29 72 80 206 129 169 117 126 119 117 87 70 104 77 72 94 105 178 195 180 183 211 175 153 123 120 115 102 118 118 123 120 122 110 97 78 86 82
134 182 174 122 107 92 185 195 199 208 197 208 251 256 123 99 61 79 93 101 94 119 112 174 252 242 183 172 125 123 121 105 79 83 92 117 137 127 114 92 95 95 113 107
344 141 137 125 121 208 132 65 107 123 235 241 232 161 91 97 69 83 90 94 55 177 157 163 212 209 166 134 115 114 124 99 79 86 142 149 125 111 102 76 84 91 84 91
359 248 151 130 118 130 170 190 218 199 194 273 240 195 159 96 84 115 83 105 81 123 258 178 211 149 127 98 92 107 128 108 73 102 107 120 117 117 109 105 96 99 99 98
276 322 220 170 144 179 200 199 199 175 162 112 87 104 102 78 106 102 92 87 239 288 363 468 351 314 449 187 105 111 92 142 114 108 128 150 134 119 129 114 116 113 101 99
402 385 338 291 160 192 279 274 232 183 146 119 163 138 101 119 135 94 106 112 80 167 292 332 423 302 130 111 69 41 129 99 191 127 151 205 155 142 142 129 131 128 124 124
474 426 403 393 385 410 306 176 69 99 113 226 264 212 205 266 240 238 220 308 244 278 131 232 320 636 480 153 142 265 242 108 127 160 190 248 194 186 171 168 182 168 156 154
289 455 501 520 510 329 231 203 287 360 320 328 353 364 411 402 299 248 372 361 394 354 244 126 168 122 131 88 131 126 120 96 124 175 244 305 261 278 240 258 276 247 248 241
231 233 309 287 308 298 242 219 184 143 234 193 204 204 217 284 263 341 370 399 375 413 265 144 122 96 113 90 114 85 77 107 178 242 336 380 366 321 337 323 324 296 293 280
255 266 186 167 232 212 182 176 122 151 201 149 125 126 105 102 108 182 341 295 178 128 169 188 131 76 92 78 71 85 61 74 237 285 386 379 345 325 340 362 359 352 348 305
162 126 120 125 151 162 198 175 229 240 215 204 226 166 120 83 104 82 73 69 71 46 61 82 107 119 67 41 64 75 53 123 319 418 318 314 351 362 363 364 397 371 361 337
234 179 189 198 192 125 167 187 143 118 120 88 44 69 80 53 44 70 54 51 63 72 87 39 61 133 185 146 107 93 54 113 220 276 278 289 358 354 362 405 403 396 369 364
95 96 150 153 166 180 154 132 128 101 79 81 122 115 102 97 93 88 67 51 39 52 40 52 62 83 85 163 142 98 68 117 138 179 234 303 374 391 391 388 372 389 384 384
104 170 186 195 148 63 52 67 61 109 125 120 109 95 97 94 89 63 62 61 47 35 50 60 75 60 97 59 142 145 58 36 108 120 224 291 369 406 416 371 349 345 316 352
68 81 107 107 39 38 60 41 75 97 74 63 49 56 56 55 63 59 94 110 64 61 35 50 68 64 46 84 2 104 82 50 87 160 220 292 370 404 396 395 370 307 293 272
Wind_Speed
36 51 54 56 57 68 80 87 95 94 84 86 92 112 100 98 96 87 58 37 31 35 20 13 29 28 15 14 18 21 23 24 24 26 28 27 30 31 32 34 34 34 34 33
54 65 66 71 78 83 82 89 93 102 83 77 92 101 103 106 75 57 44 25 21 17 14 19 28 24 9 9 14 18 20 20 23 24 27 31 27 28 32 34 34 36 36 35
76 74 52 65 72 78 81 89 92 97 93 90 96 116 91 55 47 42 42 37 36 25 16 18 27 25 17 7 12 15 18 20 21 22 23 27 28 34 37 33 34 34 31 32
84 87 87 89 89 75 91 71 75 79 82 84 65 99 77 89 85 29 29 33 26 23 23 24 29 26 20 28 17 15 19 22 22 22 24 29 34 35 37 31 28 29 29 31
74 69 70 76 83 74 74 65 66 68 75 85 68 65 57 35 34 32 27 28 27 27 25 25 29 31 30 32 30 18 18 21 25 26 29 30 31 31 28 26 26 28 29 31
76 66 57 65 62 51 49 47 55 55 59 69 59 47 62 52 40 33 31 28 34 31 29 30 31 29 31 30 28 24 19 23 23 27 30 30 31 31 30 29 30 30 29 28
56 57 52 40 42 35 34 34 46 48 47 53 49 48 46 40 37 35 36 40 33 33 33 30 30 29 31 31 27 24 21 22 22 25 26 28 30 30 31 31 30 29 28 28
36 40 37 37 36 34 33 34 42 54 55 63 47 47 50 42 37 40 48 50 42 40 34 34 31 30 30 28 27 27 25 23 22 22 24 23 25 28 25 25 25 23 22 14
36 42 17 26 25 29 36 43 49 69 75 78 64 66 63 47 52 48 46 44 41 40 37 35 34 30 28 28 27 25 23 22 21 21 20 19 19 17 19 19 21 23 37 22
42 44 31 33 31 37 48 42 50 54 71 74 74 71 69 57 51 53 54 49 42 39 39 38 35 34 30 26 23 22 21 19 16 13 12 12 12 13 13 17 20 23 25 22
43 48 38 34 44 51 47 61 62 67 68 79 93 87 67 54 56 63 58 54 51 45 43 38 35 31 26 25 23 21 19 15 13 13 11 10 11 10 11 12 12 14 14 12
45 54 64 62 54 52 61 70 64 74 79 75 88 103 67 77 80 73 66 59 50 44 38 32 30 27 25 25 24 22 19 17 13 9 9 10 9 8 8 9 9 9 11 11
43 61 80 85 82 73 80 77 75 75 82 94 97 107 81 81 73 67 73 69 56 47 43 36 31 31 28 25 23 19 17 15 11 9 8 8 6 7 10 9 6 5 6 8
57 74 84 97 90 66 71 76 77 82 94 102 105 110 122 98 79 81 77 69 66 46 47 41 36 33 32 28 25 22 21 17 13 11 11 10 11 9 6 7 3 2 3 5
62 92 85 94 91 87 90 83 87 93 93 104 108 103 103 101 89 86 83 77 78 64 54 44 43 42 35 37 34 29 24 22 19 17 17 16 12 11 10 9 8 3 2 3
66 91 87 108 99 97 103 97 102 100 97 100 102 113 94 89 93 89 79 84 72 73 50 60 53 59 57 59 34 40 27 23 26 21 21 17 14 14 14 14 9 4 2 4
74 83 91 118 102 103 116 112 106 106 102 102 114 106 100 98 90 91 86 71 76 69 64 59 59 65 64 60 65 57 35 36 32 31 26 22 21 18 19 12 8 5 3 3
64 72 82 99 85 113 93 71 76 89 89 76 80 75 76 87 81 75 76 69 72 62 62 69 71 73 80 76 76 83 60 58 35 31 31 28 25 19 16 12 9 6 4 4
55 65 75 86 89 93 89 72 68 76 77 64 71 70 74 78 78 65 55 55 64 68 70 75 74 78 91 94 92 89 53 49 39 26 29 27 25 22 19 17 13 8 5 6
56 59 70 69 85 91 68 49 54 61 88 65 68 72 76 79 82 63 62 68 73 77 74 72 75 77 81 81 70 73 73 46 39 37 36 35 33 31 26 22 17 10 7 8
58 62 76 83 87 78 56 58 62 80 83 66 67 71 72 74 69 77 81 81 83 80 80 79 80 77 75 70 63 61 57 53 43 46 46 40 34 33 29 23 18 14 11 9
62 66 71 71 87 102 52 61 75 76 78 77 78 81 84 85 86 90 89 87 88 89 87 85 86 80 70 65 65 70 61 56 47 50 50 45 39 35 30 27 20 18 14 12
67 60 65 64 70 46 63 72 73 74 80 82 85 88 87 92 93 92 91 96 99 99 98 94 89 83 77 72 69 71 69 58 48 52 54 47 41 36 32 29 25 21 18 16
56 57 66 74 75 82 78 78 79 82 87 84 84 87 89 95 95 97 98 96 96 97 96 93 91 92 90 81 70 70 71 53 50 53 54 49 44 38 33 29 27 24 21 19
61 63 70 77 76 78 76 74 75 79 84 86 85 88 91 93 96 99 103 104 101 98 99 94 91 89 93 83 76 70 63 55 57 57 51 48 44 42 36 31 30 25 23 23
60 66 71 77 63 68 75 75 77 78 80 80 82 85 84 86 92 95 95 91 100 102 102 98 94 93 89 87 74 68 64 55 55 58 53 48 45 43 37 33 27 24 23 22
Wind_Direction
278 282 276 285 288 291 294 295 294 297 303 300 299 296 298 297 294 261 254 296 296 308 305 300 319 316 298 233 224 211 210 218 228 232 237 247 249 263 272 277 275 273 269 268
279 276 283 288 289 291 291 293 292 295 302 301 301 297 293 277 255 251 251 284 265 290 297 323 328 327 308 236 224 210 214 218 225 246 244 260 258 269 271 277 277 275 270 274
275 279 288 291 291 291 289 290 292 292 297 298 300 286 296 307 321 319 320 329 334 333 336 341 335 332 331 269 232 241 236 237 237 250 253 269 272 277 279 275 278 278 276 279
279 283 280 281 284 288 288 291 292 294 295 296 305 291 295 275 284 320 327 333 346 352 343 336 333 333 333 326 296 262 245 245 246 248 251 252 266 269 278 274 279 283 284 285
267 284 283 283 285 283 283 290 291 292 291 292 296 297 315 326 313 315 334 342 349 352 347 338 331 327 324 319 316 295 268 256 262 260 262 265 275 275 275 276 277 284 291 293
275 277 284 288 290 289 285 292 293 290 293 290 294 286 304 311 323 325 338 341 338 341 341 336 330 330 327 325 318 307 291 287 274 270 272 270 271 272 270 270 276 282 289 293
269 267 268 284 289 290 283 280 294 291 283 289 305 298 287 312 316 319 327 327 334 339 338 335 330 330 327 325 323 315 303 290 282 276 273 272 275 272 272 273 274 278 282 292
269 282 251 255 266 281 276 265 284 290 291 294 309 295 307 313 318 315 314 310 317 321 324 322 324 324 323 323 321 317 310 301 292 284 279 274 274 274 271 269 271 285 267 284
275 285 259 289 271 269 282 270 281 287 290 291 290 292 297 305 307 308 308 311 313 315 319 317 315 316 318 319 319 318 313 309 303 296 290 286 278 272 275 273 278 281 288 317
287 281 275 279 273 278 280 295 282 280 288 286 290 293 297 307 307 308 306 308 310 310 312 311 309 309 311 317 323 326 328 327 325 327 322 312 304 300 293 290 292 295 308 325
275 279 282 279 275 280 280 276 280 287 278 286 289 289 299 306 313 313 310 309 306 304 305 304 304 304 307 315 318 318 322 325 325 324 322 320 318 317 313 309 309 316 318 326
269 281 273 275 284 285 282 280 275 275 280 283 282 283 293 300 308 311 307 309 304 300 301 298 296 294 298 305 308 308 311 313 315 313 310 308 306 308 310 316 321 319 325 331
273 277 279 280 282 282 279 278 279 280 280 278 281 283 296 296 304 310 306 305 300 293 292 289 284 281 282 289 294 296 299 299 298 294 295 298 296 295 294 298 311 329 5 16
277 274 274 277 283 294 286 279 279 277 277 282 281 287 286 294 303 305 306 303 299 287 283 279 282 279 281 278 278 279 283 278 277 277 281 278 280 278 276 284 285 330 45 15
278 274 277 280 283 283 282 281 280 279 282 282 285 286 289 293 299 301 301 299 297 292 285 281 286 287 282 279 273 269 268 270 269 268 265 267 265 265 273 275 276 282 335 40
277 279 281 279 282 283 282 280 280 282 283 283 284 285 288 293 297 297 294 295 298 299 296 293 300 295 289 295 267 262 257 258 269 260 259 262 258 259 263 267 269 261 157 113
279 279 280 280 282 282 278 277 280 282 282 285 285 287 292 290 291 292 293 294 292 290 292 287 291 296 298 295 283 281 271 266 262 260 258 253 249 248 257 251 241 217 193 144
284 283 285 287 286 276 286 288 286 286 286 293 298 299 301 299 298 299 299 300 297 300 293 288 286 287 288 289 290 292 279 277 257 252 252 250 243 241 240 234 230 222 236 221
281 286 288 284 282 286 290 297 295 292 288 301 300 303 304 305 302 300 308 307 303 302 299 293 290 283 280 285 283 280 282 267 259 231 240 233 226 224 230 235 227 210 232 218
276 278 280 287 286 287 300 301 304 300 288 299 301 302 304 305 294 297 306 305 302 302 300 297 293 289 288 288 287 284 278 272 248 251 242 236 231 226 227 225 217 218 206 209
278 281 277 278 281 287 295 298 300 288 293 304 303 304 304 301 297 297 299 298 296 296 296 296 293 291 294 297 291 282 273 264 250 249 251 239 227 225 226 222 223 223 222 236
278 281 281 283 284 284 295 299 294 297 301 301 302 300 297 296 294 292 292 292 291 293 292 289 287 291 297 299 296 285 276 270 258 248 246 242 231 228 225 226 226 220 231 232
281 281 287 286 287 300 302 301 303 303 302 301 301 299 299 297 295 295 292 291 290 288 286 287 285 289 293 295 295 289 277 269 257 250 244 238 234 231 228 227 219 226 235 247
284 290 288 290 289 292 299 301 303 303 302 303 302 302 300 297 295 292 291 291 289 286 286 287 287 283 284 287 291 289 279 266 255 251 246 238 229 231 235 232 227 234 231 250
289 295 292 292 295 298 299 302 305 307 306 305 304 302 301 299 297 293 290 288 286 284 284 283 283 285 282 283 285 286 282 270 258 250 243 236 232 231 234 234 231 236 244 254
292 290 288 291 299 299 302 307 310 311 309 308 307 305 304 302 300 297 293 290 285 283 281 279 279 279 280 279 280 280 279 272 258 247 239 234 230 230 233 236 244 260 263 260